AirNav   Jet Aviation Boston
 
 393 users online  

E81 Superior Municipal Airport
Superior, Arizona, USA

GOING TO SUPERIOR?


FAA INFORMATION EFFECTIVE 21 JUNE 2018

Location

FAA Identifier: E81
Lat/Long: 33-16-40.2020N / 111-07-37.4340W
33-16.670033N / 111-07.623900W
33.2778339 / -111.1270650
(estimated)
Elevation: 2646 ft. / 807 m (estimated)
Variation: 12E (1985)
From city: 2 miles SW of SUPERIOR, AZ
Time zone: UTC -7 (year round; does not observe DST)
Zip code: 85273

Airport Operations

Airport use: Open to the public
Activation date: 04/1945
Control tower: no
ARTCC: ALBUQUERQUE CENTER
FSS: PRESCOTT FLIGHT SERVICE STATION
NOTAMs facility: PRC (NOTAM-D service available)
Attendance: UNATNDD
Wind indicator: yes
Segmented circle: no

Airport Communications

CTAF/UNICOM: 122.95

Nearby radio navigation aids

VOR radial/distance  VOR name  Freq  Var
IWAr080/26.3WILLIE VORTAC113.3013E

 
NDB name  Hdg/Dist  Freq  Var  ID
CHANDLER077/34.240712ECHD -.-. .... -..

Airport Services

Airframe service: NONE
Powerplant service: NONE
Bottled oxygen: NONE
Bulk oxygen: NONE

Runway Information

Runway 4/22

Dimensions: 3250 x 75 ft. / 991 x 23 m
Surface: gravel, in fair condition
EAST 2000 FT GOOD COND; REMAINING RY FAIR.
Operational restrictions: MTN 4375 FT MSL LCTD 9,000 FT WEST OF RY 04.
RUNWAY 4  RUNWAY 22
Gradient: 2.5%2.5%
Traffic pattern: leftleft
Markings: nonenone
Runway end identifier lights: nono
Obstructions: 5 ft. brush, 25 ft. from runway, 90 ft. left and right of centerline, 5:1 slope to clear8 ft. tree, 24 ft. from runway, 30 ft. left of centerline, 3:1 slope to clear

Airport Ownership and Management from official FAA records

Ownership: Publicly-owned
Owner: TOWN OF SUPERIOR
PO BOX 218
SUPERIOR, AZ 85173
Phone 520-689-5752
Manager: TODD PRYOR
PO BOX 218
SUPERIOR, AZ 85173
Phone 520-689-5752

Airport Operational Statistics

Aircraft operations: 200/year *
100% transient general aviation
* for 12-month period ending 22 April 2017

Additional Remarks

OBSTNS BRUSH NE RWY; TERRAIN & SMELTER STACKS NE; HILLS & MTN SSW THRU SW OF ARPT.
AMGR RECOMMENDS LNDG UPHILL TO THE NE.
RY 04/22 BRUSH& TREES TO A HEIGHT OF 12 FT, 65 FT FM CNTRLN ON SOUTH SIDE, 45 FT FM CNTRLN ON NORTH SIDE.
EMERGENCY PHONE 520-689-5254 (POLICE).
LIVESTOCK ON ARPT.
RUNWAY 4 THRESHOLD MARKED BY PAINTED RUBBER TIRES, RUNWAY 22 THRESHOLD UNMARKED.

Instrument Procedures

There are no published instrument procedures at E81.

Some nearby airports with instrument procedures:

P13 - San Carlos Apache Airport (23 nm E)
P08 - Coolidge Municipal Airport (25 nm SW)
KIWA - Phoenix-Mesa Gateway Airport (27 nm W)
KFFZ - Falcon Field Airport (32 nm W)
KCHD - Chandler Municipal Airport (34 nm W)
 
Loc | Ops | Rwys | IFR | FBO | Links
Com | Nav | Svcs | Stats | Notes


 
Area around E81 (Superior Municipal Airport)
 
Road maps at: MapQuest Bing Google
 
Aerial photo
WARNING: Photo may not be current or correct
Aerial photo of E81 (Superior Municipal Airport)
Photo by Brandon Smith
Photo taken 11-Sep-2010
looking northeast.

Do you have a better or more recent aerial photo of Superior Municipal Airport that you would like to share? If so, please send us your photo.

 
Sectional chart

 
Airport distance calculator
Flying to Superior Municipal Airport? Find the distance to fly.

From to E81

Sunrise and sunset
Times for 15-Jul-2018
 Local
(UTC-7)
 Zulu
(UTC)
Morning civil twilight04:5911:59
Sunrise05:2712:27
Sunset19:3402:34
Evening civil twilight20:0203:02

Current date and time
Zulu (UTC)  16-Jul-2018 06:44:02
Local (UTC-7)  15-Jul-2018 23:44:02
 
METAR
KP08 
25nm SW 
160615Z AUTO 16003KT 10SM CLR 31/17 A2995 RMK AO2
KIWA 
26nm W 
160547Z 06006KT 20SM BKN100 BKN200 32/18 A2992
KFFZ 
32nm W 
160247Z 36011G18KT 30SM SCT100 BKN150 35/17 A2989
KCHD 
35nm W 
160347Z 05005KT 10SM SCT100 BKN200 34/17 A2989 RMK LAST
KCGZ 
38nm SW 
160556Z AUTO 10003KT 10SM CLR 32/19 A2993 RMK AO2 SLP118 6//// T03170189 10361 20317 50009 $
KA39 
43nm SW 
160615Z AUTO 00000KT 10SM BKN120 32/18 A2995 RMK AO2
KSDL 
44nm NW 
160553Z AUTO 00000KT 10SM CLR 32/17 A2993 RMK AO2 SLP104 T03170167 10361 20311 50006
KPHX 
47nm W 
160551Z 11006KT 10SM FEW140 FEW210 SCT250 32/19 A2988 RMK AO2 SLP097 T03220189 10372 20322 50010
TAF
KIWA 
26nm W 
160520Z 1606/1706 10007KT P6SM SCT090 BKN120 BKN200 FM161800 28007KT P6SM SCT080 SCT250 FM170100 08015G28KT P6SM VCTS SCT080CB BKN120 BKN200 FM170300 10012KT P6SM BKN100 OVC200 AMD LTD TO CLD VIS AND WIND TIL 161300
NOTAMs
Click for the latest NOTAMs
NOTAMs are issued by the DoD/FAA and will open in a separate window not controlled by AirNav.

 

 
 

Would you like to see your business listed on this page?

 If your business provides an interesting product or service to pilots, flight crews, aircraft, or users of the Superior Municipal Airport, you should consider listing it here.  To start the listing process, click on the button below
 
Add a business
 

Other Pages about Superior Municipal Airport

Update a link
 
Copyright © AirNav, LLC. All rights reserved. Privacy Policy  Contact